| time (UTC) | temp F | wind direction | speed MPH | gust MPH | rain 1hr in | rain 24hr in | rain mn in | humidity % | barometer mb |
| 20260903221553 | 88 | 136 | 7.0 | 17.0 | 0.00 | 0.00 | 0.00 | 62 | 1009.9 |
| 20260903220053 | 89 | 170 | 6.0 | 16.0 | 0.00 | 0.00 | 0.00 | 59 | 1010.1 |
| 20260903214551 | 89 | 164 | 8.0 | 17.0 | 0.00 | 0.00 | 0.00 | 59 | 1010.2 |
| 20260903213050 | 88 | 146 | 10.0 | 16.0 | 0.00 | 0.00 | 0.00 | 61 | 1010.4 |
| 20260903211546 | 89 | 184 | 9.0 | 16.0 | 0.00 | 0.00 | 0.00 | 60 | 1010.6 |
| 20260903204603 | 87 | 167 | 10.0 | 17.0 | 0.00 | 0.00 | 0.00 | 63 | 1010.9 |
| 20260903203040 | 88 | 152 | 10.0 | 18.0 | 0.00 | 0.00 | 0.00 | 62 | 1011.1 |
| 20260903201538 | 87 | 141 | 8.0 | 17.0 | 0.00 | 0.00 | 0.00 | 64 | 1011.2 |
| 20260903200040 | 85 | 151 | 9.0 | 16.0 | 0.00 | 0.00 | 0.00 | 67 | 1011.5 |
| 20260903194533 | 84 | 130 | 10.0 | 21.0 | 0.00 | 0.00 | 0.00 | 69 | 1011.5 |
| 20260903193032 | 84 | 117 | 8.0 | 18.0 | 0.00 | 0.00 | 0.00 | 71 | 1011.7 |
| 20260903191531 | 83 | 173 | 11.0 | 20.0 | 0.00 | 0.00 | 0.00 | 72 | 1012.0 |
| 20260903190031 | 83 | 138 | 10.0 | 20.0 | 0.00 | 0.00 | 0.00 | 72 | 1012.2 |
| 20260903184530 | 84 | 153 | 11.0 | 18.0 | 0.00 | 0.00 | 0.00 | 72 | 1012.3 |
| 20260903183027 | 81 | 174 | 14.0 | 22.0 | 0.00 | 0.00 | 0.00 | 76 | 1012.5 |
| 20260903181526 | 81 | 146 | 14.0 | 20.0 | 0.00 | 0.00 | 0.00 | 77 | 1012.6 |
| 20260903180034 | 81 | 157 | 11.0 | 19.0 | 0.00 | 0.00 | 0.00 | 78 | 1012.6 |
| 20260903174527 | 80 | 152 | 8.0 | 22.0 | 0.00 | 0.00 | 0.00 | 79 | 1012.9 |
| 20260903173025 | 80 | 138 | 12.0 | 21.0 | 0.00 | 0.00 | 0.00 | 79 | 1013.0 |
| 20260903171624 | 81 | 171 | 11.0 | 19.0 | 0.00 | 0.00 | 0.00 | 78 | 1013.0 |
| 20260903170026 | 81 | 209 | 8.0 | 20.0 | 0.00 | 0.00 | 0.00 | 78 | 1013.0 |
| 20260903164523 | 81 | 153 | 11.0 | 16.0 | 0.00 | 0.00 | 0.00 | 79 | 1012.8 |
| 20260903163021 | 80 | 167 | 9.0 | 22.0 | 0.00 | 0.00 | 0.00 | 81 | 1012.9 |
| 20260903161520 | 81 | 160 | 11.0 | 19.0 | 0.00 | 0.00 | 0.00 | 79 | 1012.9 |
| 20260903160049 | 82 | 150 | 11.0 | 19.0 | 0.00 | 0.00 | 0.00 | 78 | 1012.8 |
| 20260903154519 | 80 | 149 | 10.0 | 20.0 | 0.00 | 0.00 | 0.00 | 83 | 1012.7 |
| 20260903153020 | 79 | 132 | 11.0 | 19.0 | 0.00 | 0.00 | 0.00 | 83 | 1012.7 |
| 20260903151519 | 79 | 136 | 12.0 | 17.0 | 0.00 | 0.00 | 0.00 | 83 | 1012.7 |
| 20260903150025 | 80 | 150 | 10.0 | 19.0 | 0.00 | 0.00 | 0.00 | 82 | 1012.4 |
| 20260903144517 | 80 | 155 | 11.0 | 17.0 | 0.00 | 0.00 | 0.00 | 82 | 1012.4 |
| 20260903143022 | 80 | 186 | 9.0 | 14.0 | 0.00 | 0.00 | 0.00 | 82 | 1012.4 |
| 20260903141514 | 79 | 165 | 8.0 | 15.0 | 0.00 | 0.00 | 0.00 | 85 | 1012.7 |
| 20260903140011 | 78 | 127 | 8.0 | 14.0 | 0.00 | 0.00 | 0.00 | 86 | 1012.7 |
| 20260903134511 | 77 | 138 | 6.0 | 12.0 | 0.00 | 0.00 | 0.00 | 87 | 1012.7 |
| 20260903133010 | 76 | 157 | 7.0 | 13.0 | 0.00 | 0.00 | 0.00 | 87 | 1012.5 |
| 20260903131510 | 76 | 135 | 9.0 | 15.0 | 0.00 | 0.00 | 0.00 | 88 | 1012.5 |
| 20260903130009 | 76 | 143 | 7.0 | 14.0 | 0.00 | 0.00 | 0.00 | 88 | 1012.5 |
| 20260903124509 | 76 | 141 | 8.0 | 13.0 | 0.00 | 0.00 | 0.00 | 88 | 1012.2 |
| 20260903123008 | 76 | 145 | 7.0 | 13.0 | 0.00 | 0.00 | 0.00 | 88 | 1012.2 |
| 20260903121508 | 76 | 137 | 8.0 | 14.0 | 0.00 | 0.00 | 0.00 | 88 | 1012.1 |
| 20260903120008 | 76 | 173 | 7.0 | 14.0 | 0.00 | 0.00 | 0.00 | 87 | 1011.9 |
| 20260903114507 | 76 | 140 | 8.0 | 13.0 | 0.00 | 0.00 | 0.00 | 87 | 1011.8 |
| 20260903113007 | 76 | 144 | 8.0 | 15.0 | 0.00 | 0.00 | 0.00 | 88 | 1011.8 |
| 20260903111506 | 76 | 157 | 7.0 | 15.0 | 0.00 | 0.00 | 0.00 | 88 | 1011.7 |
| 20260903110005 | 76 | 141 | 6.0 | 12.0 | 0.00 | 0.00 | 0.00 | 88 | 1011.8 |
| 20260903104505 | 76 | 144 | 11.0 | 15.0 | 0.00 | 0.00 | 0.00 | 88 | 1011.7 |
| 20260903103003 | 76 | 136 | 9.0 | 17.0 | 0.00 | 0.00 | 0.00 | 87 | 1011.5 |
| 20260903101503 | 76 | 144 | 10.0 | 19.0 | 0.00 | 0.00 | 0.00 | 86 | 1011.6 |
| 20260903100002 | 76 | 146 | 9.0 | 15.0 | 0.00 | 0.00 | 0.00 | 87 | 1011.5 |
| 20260903094501 | 76 | 126 | 7.0 | 12.0 | 0.00 | 0.00 | 0.00 | 87 | 1011.5 |
| 20260903093133 | 76 | 156 | 6.0 | 13.0 | 0.00 | 0.00 | 0.00 | 87 | 1011.6 |
| 20260903091558 | 77 | 150 | 8.0 | 17.0 | 0.00 | 0.00 | 0.00 | 84 | 1011.6 |
| 20260903090059 | 77 | 113 | 10.0 | 19.0 | 0.00 | 0.00 | 0.00 | 83 | 1011.7 |
| 20260903084554 | 78 | 124 | 10.0 | 16.0 | 0.00 | 0.00 | 0.00 | 80 | 1011.7 |
| 20260903083054 | 78 | 150 | 10.0 | 19.0 | 0.00 | 0.00 | 0.00 | 80 | 1011.7 |
| 20260903081552 | 78 | 125 | 11.0 | 18.0 | 0.00 | 0.00 | 0.00 | 79 | 1011.6 |
| 20260903080103 | 78 | 130 | 11.0 | 17.0 | 0.00 | 0.00 | 0.00 | 79 | 1011.7 |
| 20260903074607 | 78 | 131 | 8.0 | 23.0 | 0.00 | 0.00 | 0.00 | 78 | 1011.5 |
| 20260903073059 | 78 | 111 | 9.0 | 19.0 | 0.00 | 0.00 | 0.00 | 78 | 1011.7 |
| 20260903071548 | 79 | 123 | 12.0 | 19.0 | 0.00 | 0.00 | 0.00 | 76 | 1011.7 |
| 20260903070043 | 79 | 153 | 8.0 | 16.0 | 0.00 | 0.00 | 0.00 | 74 | 1011.9 |
| 20260903064545 | 79 | 98 | 7.0 | 11.0 | 0.00 | 0.00 | 0.00 | 74 | 1011.9 |
| 20260903063041 | 79 | 112 | 4.0 | 10.0 | 0.00 | 0.00 | 0.00 | 74 | 1011.9 |
| 20260903061544 | 79 | 86 | 2.0 | 5.0 | 0.00 | 0.00 | 0.00 | 73 | 1012.0 |
| 20260903060037 | 79 | 106 | 3.0 | 9.0 | 0.00 | 0.00 | 0.00 | 73 | 1012.1 |
| 20260903054536 | 79 | 105 | 3.0 | 7.0 | 0.00 | 0.00 | 0.00 | 73 | 1012.2 |
| 20260903053033 | 79 | 124 | 4.0 | 10.0 | 0.00 | 0.00 | 0.00 | 72 | 1012.4 |
| 20260903051531 | 80 | 122 | 8.0 | 15.0 | 0.00 | 0.00 | 0.00 | 71 | 1012.5 |
| 20260903050031 | 80 | 130 | 9.0 | 16.0 | 0.00 | 0.00 | 0.00 | 70 | 1012.5 |
| 20260903044527 | 81 | 127 | 11.0 | 19.0 | 0.00 | 0.00 | 0.00 | 68 | 1012.5 |
| 20260903043026 | 82 | 125 | 9.0 | 16.0 | 0.00 | 0.00 | 0.00 | 66 | 1012.2 |
| 20260903041536 | 82 | 113 | 6.0 | 13.0 | 0.00 | 0.00 | 0.00 | 65 | 1012.4 |
| 20260903040026 | 83 | 130 | 8.0 | 12.0 | 0.00 | 0.00 | 0.00 | 64 | 1012.4 |
| 20260903034531 | 83 | 142 | 5.0 | 10.0 | 0.00 | 0.00 | 0.00 | 63 | 1012.3 |
| 20260903033038 | 84 | 134 | 4.0 | 9.0 | 0.00 | 0.00 | 0.00 | 61 | 1012.2 |
| 20260903031524 | 85 | 122 | 6.0 | 12.0 | 0.00 | 0.00 | 0.00 | 59 | 1012.2 |
| 20260903030025 | 85 | 104 | 8.0 | 14.0 | 0.00 | 0.00 | 0.00 | 58 | 1012.1 |
| 20260903024524 | 86 | 150 | 6.0 | 12.0 | 0.00 | 0.00 | 0.00 | 58 | 1012.0 |
| 20260903023023 | 87 | 132 | 6.0 | 12.0 | 0.00 | 0.00 | 0.00 | 57 | 1011.8 |
| 20260903021523 | 87 | 115 | 7.0 | 11.0 | 0.00 | 0.00 | 0.00 | 55 | 1011.4 |
| 20260903020022 | 88 | 119 | 6.0 | 9.0 | 0.00 | 0.00 | 0.00 | 54 | 1011.3 |
| 20260903014525 | 88 | 114 | 6.0 | 10.0 | 0.00 | 0.00 | 0.00 | 53 | 1011.1 |
| 20260903013031 | 89 | 142 | 8.0 | 13.0 | 0.00 | 0.00 | 0.00 | 52 | 1011.0 |
| 20260903011521 | 90 | 109 | 12.0 | 17.0 | 0.00 | 0.00 | 0.00 | 51 | 1010.8 |
| 20260903010021 | 90 | 105 | 11.0 | 18.0 | 0.00 | 0.00 | 0.00 | 51 | 1010.7 |
| 20260903004538 | 91 | 107 | 12.0 | 17.0 | 0.00 | 0.00 | 0.00 | 51 | 1010.6 |
| 20260903003019 | 91 | 108 | 12.0 | 19.0 | 0.00 | 0.00 | 0.00 | 51 | 1010.4 |
| 20260903001519 | 91 | 112 | 10.0 | 18.0 | 0.00 | 0.00 | 0.00 | 51 | 1010.3 |
| 20260903000019 | 92 | 108 | 12.0 | 19.0 | 0.00 | 0.00 | 0.00 | 51 | 1010.2 |
| 20260902234518 | 95 | 105 | 11.0 | 15.0 | 0.00 | 0.00 | 0.00 | 45 | 1010.1 |
| 20260902233018 | 95 | 94 | 7.0 | 13.0 | 0.00 | 0.00 | 0.00 | 44 | 1010.1 |
| 20260902231518 | 96 | 101 | 7.0 | 15.0 | 0.00 | 0.00 | 0.00 | 44 | 1010.0 |
| 20260902230017 | 96 | 94 | 5.0 | 13.0 | 0.00 | 0.00 | 0.00 | 44 | 1010.0 |
| 20260902224514 | 96 | 104 | 4.0 | 13.0 | 0.00 | 0.00 | 0.00 | 43 | 1010.1 |
| 20260902223014 | 95 | 88 | 7.0 | 11.0 | 0.00 | 0.00 | 0.00 | 44 | 1010.1 |